Tracking 25949 objects as of 8-Aug-2022
HD Live streaming from Space Station
objects crossing your sky now

STARLINK-1523

Track STARLINK-1523 now!
10-day predictions
STARLINK-1523 is classified as:


NORAD ID: 46028
Int'l Code: 2020-055B
Perigee: 553.4 km
Apogee: 555.3 km
Inclination: 53.1 °
Period: 95.6 minutes
Semi major axis: 6925 km
RCS: Unknown
Launch date: August 7, 2020
Source: United States (US)
Launch site: AIR FORCE EASTERN TEST RANGE (AFETR)
aabbcc
Your satellite tracking list
Your tracking list is empty




NASA's NSSDC Master Catalog

Two Line Element Set (TLE):
1 46028U 20055B   22219.55809564  .00001175  00000-0  97752-4 0  9998
2 46028  53.0537 248.0164 0001390  73.3137 286.8005 15.06404307111436
Source of the keplerian elements: AFSPC